x

9410230 - La Jolla, Ca (ljac1) Weather Station

11:30 - Mon 21st Jul 2014 All times are PDT. -7 hours from GMT.

  • Wind
    6mph, 7mph gusts
  • Sea Temp 71°f
  • Air Temp 69°f
  • Sea Pressure 1016.6mb
  • 9410230 - La Jolla, Ca
  • 9410230 - La Jolla, Ca

More Historic Weather Station data

Upgrade to MSW Pro to gain access to the past 30 days of data for over 8000 Wavebouys and Weather Stations around the globe.

Join Pro

Comparision Forecast

View Surf forecast
   
lun. 07/21 11:30 6 7 mph 1016.6mb 71f 69f
11:24 6 7 mph 1016.6mb 71f 69f
11:18 5 7 mph 1016.6mb 71f 69f
11:12 7 9 mph 1016.6mb 71f 69f
11:06 7 8 mph 1016.7mb 71f 69f
11:00 6 8 mph 1016.7mb 71f 69f
10:54 7 8 mph 1016.7mb 71f 69f
10:48 7 9 mph 1016.6mb 71f 69f
10:42 6 8 mph 1016.7mb 71f 69f
10:36 6
mph
1016.7mb 71f 69f
10:30 6 7 mph 1016.7mb 71f 69f
10:24 7 8 mph 1016.6mb 71f 69f
10:18 7 8 mph 1016.6mb 71f 69f
10:12 6 8 mph 1016.5mb 71f 69f
10:06 6 7 mph 1016.5mb 71f 69f
10:00 6
mph
1016.5mb 71f 69f
9:54 5 6 mph 1016.4mb 71f 69f
9:48 5 9 mph 1016.4mb 71f 69f
9:42 6 9 mph 1016.4mb 71f 69f
9:36 6 7 mph 1016.4mb 71f 69f
9:30 7 8 mph 1016.2mb 71f 69f
9:24 7 9 mph 1016.1mb 71f 69f
9:18 8
mph
1016.1mb 71f 69f
9:12 7 8 mph 1016mb 71f 69f
9:06 6 7 mph 1015.9mb 71f 69f
9:00 7 9 mph 1015.9mb 71f 69f
8:54 7 10 mph 1015.9mb 71f 70f
8:48 8 11 mph 1015.9mb 71f 70f
8:42 10 13 mph 1015.9mb 71f 70f
8:36 10 11 mph 1015.9mb 71f 70f
8:30 9 11 mph 1015.8mb 71f 70f
8:24 10 11 mph 1015.9mb 71f 70f
8:18 9 13 mph 1015.9mb 71f 70f
8:12 10 11 mph 1015.9mb 71f 70f
8:06 8 9 mph 1015.8mb 71f 70f
8:00 9 10 mph 1015.8mb 71f 70f
7:54 8 9 mph 1015.8mb 71f 70f
7:48 8 9 mph 1015.9mb 71f 69f
7:42 8 9 mph 1015.8mb 71f 69f
7:36 8 9 mph 1015.8mb 71f 69f
7:30 8 9 mph 1015.8mb 71f 70f
7:24 8 9 mph 1015.7mb 71f 70f
7:18 8 10 mph 1015.8mb 71f 70f
7:12 9 10 mph 1015.7mb 70f 70f
7:06 8 10 mph 1015.8mb 69f 70f
7:00 9 10 mph 1015.8mb 69f 70f
6:54 10 11 mph 1015.7mb 69f 70f
6:48 10 11 mph 1015.7mb 69f 70f
6:42 9 10 mph 1015.7mb 69f 70f
6:36 10 11 mph 1015.7mb 69f 70f
6:30 10 13 mph 1015.7mb 69f 70f
6:24 11 14 mph 1015.7mb 69f 70f
6:18 11 13 mph 1015.7mb 69f 70f
6:12 11 13 mph 1015.8mb 69f 70f
6:06 10 13 mph 1015.8mb 69f 70f
6:00 11 13 mph 1015.9mb 69f 70f
5:54 11 14 mph 1016mb 69f 70f
5:48 14
mph
1016mb 69f 70f
5:42 13 14 mph 1016mb 69f 70f
5:36 11 14 mph 1016.1mb 69f 70f
5:30 11 14 mph 1016.1mb 69f 70f
5:24 10 14 mph 1016.2mb 69f 70f
5:18 11 14 mph 1016.2mb 68f 70f
5:12 13 14 mph 1016.3mb 68f 71f
5:06 11 14 mph 1016.3mb 68f 70f
5:00 10 13 mph 1016.4mb 68f 71f
4:54 13 14 mph 1016.4mb 68f 70f
4:48 13 14 mph 1016.5mb 68f 70f
4:42 11 14 mph 1016.6mb 69f 71f
4:36 11 14 mph 1016.6mb 69f 71f
4:30 11 14 mph 1016.5mb 69f 71f
4:24 11 14 mph 1016.4mb 69f 71f
4:18 13 14 mph 1016.5mb 69f 71f
4:12 11 14 mph 1016.5mb 69f 71f
4:06 11 13 mph 1016.5mb 69f 71f
4:00 13 14 mph 1016.6mb 69f 70f
3:54 13 14 mph 1016.6mb 69f 70f
3:48 10 13 mph 1016.7mb 69f 71f
3:42 13 14 mph 1016.7mb 69f 70f
3:36 10 13 mph 1016.8mb 69f 71f
3:30 11 14 mph 1016.8mb 69f 71f
3:24 10 13 mph 1016.9mb 69f 71f
3:18 11 13 mph 1017mb 69f 71f
3:12 11 14 mph 1017.1mb 68f 71f
3:06 11 14 mph 1017mb 69f 71f
3:00 11 14 mph 1017mb 68f 71f
2:54 11 13 mph 1016.9mb 68f 71f
2:48 11 14 mph 1016.9mb 68f 71f
2:42 13 15 mph 1017mb 68f 70f
2:36 13 14 mph 1017mb 68f 70f
2:30 11 14 mph 1017.1mb 68f 70f
2:24 10 13 mph 1017.1mb 68f 70f
2:18 10 13 mph 1017.2mb 68f 71f
2:12 9 11 mph 1017.2mb 68f 70f
2:06 9 11 mph 1017.2mb 68f 70f
2:00 9 10 mph 1017.3mb 68f 70f
1:54 9 11 mph 1017.3mb 68f 70f
1:48 7 9 mph 1017.3mb 67f 71f
1:42 10
mph
1017.3mb 67f 70f
1:36 8 10 mph 1017.3mb 67f 70f
1:30 9 10 mph 1017.3mb 67f 70f
1:18 9 11 mph 1017.4mb 67f 70f
1:12 10 11 mph 1017.4mb 67f 70f
1:06 10 11 mph 1017.5mb 67f 70f
1:00 9 13 mph 1017.5mb 67f 70f
12:54 9 10 mph 1017.5mb 67f 70f
12:48 9 10 mph 1017.6mb 67f 70f
12:42 9
mph
1017.5mb 67f 70f
12:36 7 8 mph 1017.5mb 67f 70f
12:30 7 8 mph 1017.5mb 67f 70f
12:24 7 8 mph 1017.5mb 67f 70f
12:18 8 9 mph 1017.5mb 67f 70f
12:12 7 8 mph 1017.6mb 67f 70f
12:06 6 7 mph 1017.6mb 66f 70f
12:00 7 8 mph 1017.7mb 66f 70f
11:54 7 8 mph 1017.8mb 66f 70f
11:48 6 7 mph 1017.7mb 66f 70f
11:42 6 7 mph 1017.8mb 66f 70f
11:36 6 7 mph 1017.8mb 66f 70f
11:30 7
mph
1017.9mb 65f 69f
11:24 6 8 mph 1017.9mb 65f 70f
11:18 7 8 mph 1017.9mb 65f 69f
11:12 6 7 mph 1018mb 65f 70f
11:06 6 7 mph 1018mb 65f 70f
11:00 6 7 mph 1018mb 65f 70f
10:54 6
mph
1018.1mb 65f 70f
10:48 6 7 mph 1018mb 65f 69f
10:42 6 8 mph 1018mb 65f 69f
10:36 6 8 mph 1018.1mb 65f 70f
10:30 7 8 mph 1018mb 65f 69f
10:24 7 8 mph 1018.1mb 65f 69f
10:18 7 8 mph 1018.1mb 64f 69f
10:12 8 9 mph 1018mb 64f 69f
10:06 8
mph
1017.9mb 66f 69f
10:00 8 9 mph 1017.8mb 69f 69f
9:54 7 8 mph 1017.9mb 69f 69f
9:48 6 7 mph 1018mb 69f 69f
9:42 7
mph
1018mb 69f 69f
9:36 7 8 mph 1018.1mb 67f 69f
9:30 6 7 mph 1018.1mb 65f 69f
9:24 7
mph
1018.1mb 63f 69f
9:18 6
mph
1018.1mb 62f 69f
9:12 6 7 mph 1018.1mb 62f 69f
9:06 6 7 mph 1018mb 63f 69f
9:00 5 6 mph 1017.9mb 65f 70f
8:54 6
mph
1017.9mb 66f 69f
8:48 3 5 mph 1017.8mb 68f 69f
8:42 5
mph
1017.7mb 69f 69f
8:36 5 6 mph 1017.7mb 69f 69f
8:30 6
mph
1017.7mb 68f 69f
8:24 3 5 mph 1017.7mb 69f 69f
8:18 3 5 mph 1017.7mb 69f 69f
8:12 5
mph
1017.7mb 69f 69f
8:06 5
mph
1017.6mb 69f 69f
8:00 5
mph
1017.6mb 69f 69f
7:54 3 5 mph 1017.7mb 69f 69f
7:48 3 5 mph 1017.7mb 69f 69f
7:42 2 3 mph 1017.6mb 69f 68f
7:36 2 3 mph 1017.5mb 68f 68f
7:30 2 3 mph 1017.4mb 68f 68f
7:24 3
mph
1017.3mb 68f 68f
7:18 3
mph
1017.3mb 68f 68f
7:12 3 5 mph 1017.2mb 68f 68f
7:06 3
mph
1017.2mb 68f 68f
7:00 3
mph
1017.1mb 67f 68f
6:54 3 5 mph 1017mb 67f 68f
6:48 6 7 mph 1017mb 67f 68f
6:42 6 7 mph 1016.9mb 67f 68f
6:36 5 7 mph 1016.9mb 67f 68f
6:30 7
mph
1016.8mb 67f 68f
6:24 5 6 mph 1016.8mb 66f 68f
6:18 5 6 mph 1016.8mb 66f 68f
6:12 6 7 mph 1016.6mb 66f 68f
6:06 6 7 mph 1016.5mb 65f 68f
6:00 6 7 mph 1016.5mb 65f 68f
5:54 6 7 mph 1016.5mb 64f 68f
5:48 6 7 mph 1016.3mb 64f 68f
5:42 5 7 mph 1016.3mb 63f 68f
5:36 5 6 mph 1016.2mb 63f 68f
5:30 5 6 mph 1016.2mb 64f 68f
5:24 6
mph
1016.2mb 64f 68f
5:18 3 5 mph 1016.1mb 64f 68f
5:12 3 6 mph 1016mb 64f 68f
5:06 5 6 mph 1016mb 64f 68f
5:00 5 6 mph 1016mb 65f 68f
4:54 6 7 mph 1015.9mb 65f 68f
4:48 7
mph
1015.9mb 65f 68f
4:42 6 7 mph 1015.9mb 65f 68f
4:36 7 8 mph 1015.8mb 65f 68f
4:30 7 8 mph 1015.8mb 66f 68f
4:24 6 7 mph 1015.8mb 66f 69f
4:18 7
mph
1015.8mb 67f 69f
4:12 3 8 mph 1015.7mb 69f 68f
4:06 3 9 mph 1015.7mb 69f 69f
4:00 9 10 mph 1015.6mb 68f 69f
3:54 6 8 mph 1015.5mb 69f 69f
3:48 6 8 mph 1015.5mb 68f 69f
3:42 2 7 mph 1015.5mb 67f 69f
3:36 7 9 mph 1015.5mb 66f 69f
3:30 6 8 mph 1015.5mb 66f 69f
3:24 6 7 mph 1015.6mb 67f 69f
3:18 7 8 mph 1015.6mb 69f 69f
3:12 5 7 mph 1015.7mb 69f 69f
3:06 5 6 mph 1015.7mb 69f 69f
3:00 6 7 mph 1015.7mb 69f 69f
2:54 7 9 mph 1015.7mb 70f 69f
2:48 6 7 mph 1015.7mb 71f 69f
2:42 7 10 mph 1015.6mb 71f 69f
2:36 8 10 mph 1015.6mb 71f 69f
2:30 9 10 mph 1015.6mb 71f 69f
2:24 9 10 mph 1015.6mb 70f 69f
2:18 9 11 mph 1015.6mb 70f 69f
2:12 9 11 mph 1015.7mb 70f 69f
2:06 9 10 mph 1015.8mb 70f 69f
2:00 9 10 mph 1015.9mb 70f 69f
1:54 8 9 mph 1016mb 69f 69f
1:48 9 13 mph 1016mb 69f 69f
1:42 11 13 mph 1015.9mb 70f 69f
1:36 10 13 mph 1015.9mb 69f 69f
1:30 11 13 mph 1016mb 69f 69f
1:24 10 13 mph 1016.1mb 69f 69f
1:18 9 10 mph 1016.2mb 69f 69f
1:12 9 10 mph 1016.2mb 69f 69f
1:06 9 11 mph 1016.2mb 70f 69f
1:00 10 11 mph 1016.1mb 70f 69f
12:54 10
mph
1016.1mb 70f 69f
12:48 10
mph
1016.1mb 70f 69f
12:42 8 9 mph 1016.2mb 70f 69f
12:36 9
mph
1016.2mb 70f 69f
12:30 8 9 mph 1016.2mb 70f 69f
12:24 8 9 mph 1016.3mb 70f 69f
12:18 8 9 mph 1016.2mb 70f 69f
12:12 5 6 mph 1016.3mb 70f 69f
12:06 5 6 mph 1016.3mb 70f 69f
12:00 6 7 mph 1016.3mb 71f 69f
dim. 07/20 11:54 5 7 mph 1016.4mb 71f 69f
11:48 6 7 mph 1016.3mb 71f 69f
11:42 6 7 mph 1016.2mb 71f 69f
11:36 7 8 mph 1016.2mb 71f 69f
11:30 6 7 mph 1016.2mb 71f 69f
11:24 6
mph
1016.2mb 71f 69f
11:18 6
mph
1016.3mb 71f 69f
11:12 6 7 mph 1016.3mb 71f 69f
11:06 5 6 mph 1016.3mb 71f 69f
11:00 6 7 mph 1016.3mb 71f 70f
10:54 6 7 mph 1016.3mb 72f 69f
10:48 6 7 mph 1016.3mb 72f 69f
10:42 6 8 mph 1016.2mb 72f 69f
10:36 6 8 mph 1016.2mb 72f 69f
10:30 6 8 mph 1016.2mb 72f 69f
10:24 6 8 mph 1016.2mb 72f 70f
10:18 7 8 mph 1016.1mb 72f 69f
10:12 7 9 mph 1016.1mb 72f 69f
10:06 8 10 mph 1016mb 72f 69f
10:00 8 10 mph 1016mb 72f 69f
9:54 9 10 mph 1016.1mb 72f 70f
9:48 9 10 mph 1016mb 72f 69f
9:42 7 11 mph 1016mb 71f 70f
9:36 8 10 mph 1016mb 71f 69f
9:30 8 10 mph 1016mb 71f 70f
9:24 9 10 mph 1015.9mb 71f 69f
9:18 9 10 mph 1015.8mb 71f 69f
9:12 9 11 mph 1015.7mb 71f 69f
9:06 9 11 mph 1015.7mb 71f 69f
9:00 9 10 mph 1015.7mb 71f 69f
8:54 8 10 mph 1015.6mb 71f 69f
8:48 9
mph
1015.5mb 71f 69f
8:42 8 9 mph 1015.5mb 71f 70f
8:36 8 10 mph 1015.4mb 71f 69f
8:30 7 10 mph 1015.3mb 71f 69f
8:24 9 10 mph 1015.3mb 71f 69f
8:18 8 9 mph 1015.4mb 71f 69f
8:12 9 10 mph 1015.3mb 71f 69f
8:06 9 11 mph 1015.3mb 72f 69f
8:00 8 11 mph 1015.2mb 72f 70f
7:54 9 11 mph 1015.1mb 71f 69f
7:48 8 10 mph 1015.1mb 71f 69f
7:42 9 10 mph 1015.1mb 71f 69f
7:36 9 10 mph 1015mb 71f 70f
7:30 8 10 mph 1015mb 71f 70f
7:24 9 10 mph 1014.9mb 71f 70f
7:18 9 10 mph 1014.8mb 71f 70f
7:12 8 9 mph 1014.8mb 71f 70f
7:06 8 9 mph 1014.8mb 70f 70f
7:00 8 10 mph 1014.8mb 70f 70f
6:54 9 10 mph 1014.7mb 69f 70f
6:48 9 10 mph 1014.7mb 69f 70f
6:42 8 10 mph 1014.8mb 69f 70f
6:36 9 10 mph 1014.6mb 67f 70f
6:30 8 10 mph 1014.5mb 65f 70f
6:24 9 10 mph 1014.5mb 65f 71f
6:18 8 9 mph 1014.5mb 65f 70f
6:12 9 10 mph 1014.5mb 67f 70f
6:06 8 9 mph 1014.5mb 66f 70f
6:00 8 9 mph 1014.6mb 66f 70f
5:54 9 10 mph 1014.6mb 67f 70f
5:48 8 10 mph 1014.5mb 67f 70f
5:42 9 10 mph 1014.5mb 67f 70f
5:36 9 10 mph 1014.5mb 67f 70f
5:30 9 10 mph 1014.5mb 67f 70f
5:24 8 11 mph 1014.6mb 67f 71f
5:18 9 11 mph 1014.6mb 67f 70f
5:12 10 11 mph 1014.6mb 67f 70f
5:06 9 11 mph 1014.7mb 67f 70f
5:00 9 13 mph 1014.7mb 68f 71f
4:54 9 11 mph 1014.7mb 69f 70f
4:48 9 11 mph 1014.7mb 69f 71f
4:42 9 11 mph 1014.7mb 70f 71f
4:36 11 13 mph 1014.8mb 70f 70f
4:30 11 13 mph 1014.9mb 70f 71f
4:24 10 11 mph 1014.9mb 70f 71f
4:18 10 13 mph 1014.9mb 70f 71f
4:12 11 14 mph 1015mb 70f 70f
4:06 9 13 mph 1015mb 70f 71f
4:00 9 13 mph 1015.1mb 71f 71f
3:54 10 13 mph 1015.2mb 71f 70f
3:48 11 13 mph 1015.2mb 71f 70f
3:42 10 13 mph 1015.3mb 71f 70f
3:36 10 14 mph 1015.4mb 71f 70f
3:30 11 14 mph 1015.4mb 71f 70f
3:24 10 13 mph 1015.4mb 71f 71f
3:18 10 13 mph 1015.5mb 70f 71f
3:12 11 13 mph 1015.7mb 70f 71f
3:06 9 13 mph 1015.7mb 71f 71f
3:00 11 13 mph 1015.8mb 71f 71f
2:54 11 13 mph 1015.8mb 70f 70f
2:48 10 14 mph 1015.8mb 69f 71f
2:42 9 13 mph 1015.9mb 69f 71f
2:36 11 14 mph 1015.9mb 70f 70f
2:30 9 13 mph 1015.9mb 70f 71f
2:24 13 14 mph 1015.9mb 70f 70f
2:18 10 14 mph 1016mb 70f 71f
2:12 13 15 mph 1015.9mb 70f 70f
2:06 13 14 mph 1016mb 69f 70f
2:00 10 14 mph 1016mb 69f 70f
1:54 13 14 mph 1016.1mb 70f 70f
1:48 13 14 mph 1016.1mb 70f 70f
1:42 10 13 mph 1016.1mb 69f 71f
1:36 9 11 mph 1016.1mb 69f 71f
1:30 7 13 mph 1016.1mb 69f 71f
1:24 10 13 mph 1016.2mb 68f 71f
1:18 10 11 mph 1016.2mb 68f 70f
1:12 9 10 mph 1016.2mb 69f 71f
1:06 9 11 mph 1016.2mb 69f 70f
1:00 8 10 mph 1016.2mb 69f 70f
12:54 9 10 mph 1016.3mb 69f 70f
12:48 8 10 mph 1016.4mb 69f 70f
12:42 8 9 mph 1016.4mb 69f 70f
12:36 9 10 mph 1016.4mb 69f 70f
12:30 8 9 mph 1016.5mb 69f 70f
12:24 7 10 mph 1016.5mb 69f 70f
12:18 9 10 mph 1016.4mb 69f 70f
12:12 9 11 mph 1016.4mb 69f 70f
12:06 10 11 mph 1016.4mb 69f 70f
12:00 9 11 mph 1016.3mb 69f 70f
11:54 10 11 mph 1016.3mb 69f 70f
11:48 10 11 mph 1016.3mb 68f 70f
11:42 9 10 mph 1016.3mb 68f 70f
11:36 8 10 mph 1016.4mb 68f 71f
11:30 7 9 mph 1016.3mb 68f 71f
11:24 7 8 mph 1016.4mb 68f 71f
11:18 6 7 mph 1016.4mb 68f 71f
11:12 6 7 mph 1016.5mb 68f 72f
11:06 5 7 mph 1016.4mb 68f 72f
11:00 6 7 mph 1016.5mb 69f 73f
10:54 5 6 mph 1016.4mb 69f 73f
10:48 3 5 mph 1016.4mb 70f 73f
10:42 2 5 mph 1016.4mb 70f 73f
10:36 2 5 mph 1016.4mb 70f 73f
10:30 3 5 mph 1016.4mb 70f 73f
10:24 3 5 mph 1016.4mb 70f 72f
10:18 2 3 mph 1016.3mb 70f 73f
10:12 2 3 mph 1016.3mb 70f 72f
10:06 3
mph
1016.2mb 69f 72f
10:00 2 3 mph 1016.2mb 69f 72f
9:54 2
mph
1016.2mb 69f 71f
9:48 2 3 mph 1016.2mb 69f 71f
9:42 3
mph
1016.2mb 69f 71f
9:36 2 3 mph 1016.2mb 69f 71f
9:30 2 3 mph 1016.3mb 69f 71f
9:24 2 3 mph 1016.3mb 68f 71f
9:18 2 3 mph 1016.3mb 68f 71f
9:12 2 3 mph 1016.3mb 68f 71f
9:06 2
mph
1016.3mb 68f 71f
9:00 2
mph
1016.3mb 67f 70f
8:54 2
mph
1016.3mb 67f 70f
8:48 1 2 mph 1016.3mb 67f 70f
8:42  -  2 mph 1016.3mb 67f 70f
8:36 2 3 mph 1016.3mb 69f 70f
8:30 2 3 mph 1016.2mb 70f 70f
8:24 2
mph
1016.2mb 70f 70f
8:18 2 3 mph 1016.1mb 70f 70f
8:12 1 2 mph 1016.1mb 70f 70f
8:06 2
mph
1016.1mb 70f 70f
8:00 1 3 mph 1016mb 70f 70f
7:54 2 5 mph 1015.9mb 70f 70f
7:48 3
mph
1015.9mb 70f 70f
7:42 2 5 mph 1015.8mb 70f 70f
7:36 3 5 mph 1015.7mb 70f 70f
7:30 2 3 mph 1015.7mb 70f 69f
7:24 3 6 mph 1015.6mb 70f 69f
7:18 5 6 mph 1015.6mb 70f 69f
7:12 5
mph
1015.5mb 70f 69f
7:06 5
mph
1015.4mb 69f 69f
7:00 3 5 mph 1015.3mb 69f 69f
6:54 5 6 mph 1015.2mb 69f 69f
6:48 3 6 mph 1015.2mb 69f 69f
6:42 2 3 mph 1015.2mb 69f 69f
6:36 2 3 mph 1015.1mb 69f 69f
6:30 2
mph
1015.1mb 68f 69f
6:24 1 2 mph 1015mb 67f 69f
6:18 1 2 mph 1014.9mb 66f 69f
6:12  -  mph 1014.9mb 66f 69f
6:06  -  1 mph 1014.9mb 66f 69f
6:00  -  1 mph 1014.8mb 66f 69f
5:54  -  2 mph 1014.8mb 66f 69f
5:48 1 2 mph 1014.7mb 67f 69f
5:42 1 2 mph 1014.7mb 68f 69f
5:36 2
mph
1014.7mb 69f 69f
5:30 1 2 mph 1014.6mb 70f 69f
5:24 2
mph
1014.6mb 70f 69f
5:18  -  1 mph 1014.5mb 70f 69f
5:12  -  1 mph 1014.5mb 70f 69f
5:06 1 3 mph 1014.4mb 70f 69f
5:00 2 3 mph 1014.4mb 70f 69f
4:54 2
mph
1014.4mb 70f 69f
4:48 2
mph
1014.3mb 70f 69f
4:42 2 3 mph 1014.3mb 70f 69f
4:36 1 2 mph 1014.3mb 70f 69f
4:30 1 3 mph 1014.2mb 70f 69f
4:24 2
mph
1014.2mb 70f 69f
4:18 2 3 mph 1014.2mb 70f 69f
4:12 2 3 mph 1014.2mb 70f 69f
4:06 2 3 mph 1014.2mb 70f 69f
4:00 2 3 mph 1014.2mb 70f 69f
3:54 2 3 mph 1014.2mb 69f 69f
3:48 2 3 mph 1014.2mb 69f 69f
3:42 2
mph
1014.2mb 69f 69f
3:36 1 2 mph 1014.3mb 70f 69f
3:30 1 2 mph 1014.3mb 70f 69f
3:24 1 2 mph 1014.2mb 70f 69f
3:18 2
mph
1014.2mb 70f 68f
3:12 2
mph
1014.1mb 70f 68f
3:06 1 2 mph 1014.2mb 69f 69f
3:00 2 3 mph 1014.3mb 69f 68f
2:54 2 3 mph 1014.3mb 68f 68f
2:48 2
mph
1014.3mb 67f 68f
2:42 2 3 mph 1014.3mb 67f 68f
2:36 3 5 mph 1014.3mb 66f 68f
2:30 5 6 mph 1014.3mb 64f 68f
2:24 5 6 mph 1014.3mb 64f 69f
2:18 6
mph
1014.3mb 64f 69f
2:12 5
mph
1014.4mb 64f 69f
2:06 3 5 mph 1014.5mb 65f 69f
2:00 3
mph
1014.6mb 65f 69f
1:54 2 5 mph 1014.7mb 65f 68f
1:48 3 5 mph 1014.7mb 65f 69f
1:42 2 5 mph 1014.8mb 66f 69f
1:36 3 5 mph 1014.8mb 65f 69f
1:30 3 5 mph 1014.8mb 65f 69f
1:24 2 3 mph 1014.9mb 66f 69f
1:18 2 5 mph 1014.9mb 66f 69f
1:12 3
mph
1014.9mb 66f 69f
1:06 2 3 mph 1014.9mb 66f 69f
1:00 2 3 mph 1014.9mb 66f 69f
12:54  -  1 mph 1014.9mb 66f 69f
12:48  -  2 mph 1014.9mb 66f 69f
12:42 2
mph
1014.9mb 67f 68f
12:36 1 3 mph 1015mb 67f 69f
12:30 2 7 mph 1015mb 67f 68f
12:24 5 6 mph 1015mb 68f 69f
12:18 6 7 mph 1015mb 68f 69f
12:12 2 3 mph 1015.1mb 68f 69f
12:06 2 3 mph 1015.2mb 68f 69f
12:00 2 3 mph 1015.1mb 68f 69f
sam. 07/19 11:54 2
mph
1015.2mb 67f 69f
11:48 2
mph
1015.2mb 67f 69f
11:42 2
mph
1015.2mb 67f 69f
11:36 2 3 mph 1015.1mb 67f 69f
11:30 2 3 mph 1015.2mb 67f 69f
11:24 2
mph
1015.3mb 67f 69f
11:18 2
mph
1015.3mb 67f 69f
11:12 2 3 mph 1015.4mb 67f 69f
11:06 1 2 mph 1015.4mb 67f 69f
11:00 2
mph
1015.4mb 67f 69f
10:54 1 2 mph 1015.5mb 66f 69f
10:48 2 3 mph 1015.4mb 67f 69f
10:42 2 3 mph 1015.3mb 66f 69f
10:36 2 3 mph 1015.3mb 66f 69f
10:30 3
mph
1015.3mb 66f 68f
10:24 2 3 mph 1015.3mb 66f 69f
10:18 2 5 mph 1015.3mb 66f 69f
10:12 3 6 mph 1015.3mb 67f 69f
10:06 3 5 mph 1015.3mb 67f 69f
10:00 3
mph
1015.4mb 68f 69f
9:54 3
mph
1015.4mb 68f 69f
9:48 3 5 mph 1015.4mb 69f 68f
9:42 3 5 mph 1015.3mb 70f 69f
9:36 3 5 mph 1015.1mb 70f 69f
9:30 3 5 mph 1015.1mb 70f 69f
9:24 3 5 mph 1015.1mb 70f 69f
9:18 5
mph
1015mb 70f 68f
9:12 3 5 mph 1015mb 70f 69f
9:06 5 6 mph 1014.9mb 70f 69f
9:00 5 6 mph 1014.9mb 70f 69f
8:54 3 6 mph 1014.8mb 70f 69f
8:48 5 6 mph 1014.7mb 70f 68f
8:42 6 7 mph 1014.8mb 70f 69f
8:36 6 7 mph 1014.7mb 69f 69f
8:30 5 6 mph 1014.7mb 69f 69f
8:24 5 6 mph 1014.7mb 69f 69f
8:18 5 6 mph 1014.7mb 69f 69f
8:12 3 5 mph 1014.6mb 69f 69f
8:06 3 5 mph 1014.6mb 69f 69f
8:00 3 5 mph 1014.6mb 69f 69f
7:54 3 5 mph 1014.7mb 69f 69f
7:48 3 6 mph 1014.7mb 69f 69f
7:42 5 6 mph 1014.6mb 69f 69f
7:36 5 7 mph 1014.6mb 69f 69f
7:30 5 7 mph 1014.6mb 70f 69f
7:24 5
mph
1014.6mb 70f 69f
7:18 3 6 mph 1014.6mb 70f 69f
7:12 5 6 mph 1014.5mb 70f 69f
7:06 3 5 mph 1014.5mb 70f 69f
7:00 3 5 mph 1014.4mb 70f 69f
6:54 5 6 mph 1014.5mb 71f 69f
6:48 5 6 mph 1014.5mb 71f 69f
6:42 5 6 mph 1014.5mb 71f 69f
6:36 3 6 mph 1014.5mb 71f 69f
6:30 5 6 mph 1014.4mb 71f 69f
6:24 6 7 mph 1014.3mb 71f 69f
6:18 6
mph
1014.3mb 71f 70f
6:12 5 6 mph 1014.4mb 71f 70f
6:06 3 7 mph 1014.4mb 71f 70f
6:00 6 7 mph 1014.3mb 71f 69f
5:54 6 8 mph 1014.3mb 71f 69f
5:48 6 8 mph 1014.3mb 71f 69f
5:42 6 7 mph 1014.3mb 71f 69f
5:36 7
mph
1014.3mb 71f 69f
5:30 6 7 mph 1014.3mb 71f 69f
5:24 6 7 mph 1014.4mb 71f 69f
5:18 6 7 mph 1014.4mb 71f 69f
5:12 6 7 mph 1014.4mb 71f 70f
5:06 6 7 mph 1014.4mb 71f 70f
5:00 6 7 mph 1014.5mb 71f 70f
4:54 5 7 mph 1014.5mb 71f 71f
4:48 6 8 mph 1014.5mb 71f 71f
4:42 6 8 mph 1014.6mb 71f 71f
4:36 6 8 mph 1014.6mb 71f 70f
4:30 7 8 mph 1014.5mb 71f 70f
4:24 6 8 mph 1014.6mb 71f 70f
4:18 7 8 mph 1014.7mb 71f 70f
4:12 6 8 mph 1014.8mb 71f 70f
4:06 7 8 mph 1014.8mb 70f 70f
4:00 6 10 mph 1014.9mb 70f 71f
3:54 7 9 mph 1014.9mb 70f 71f
3:48 7 8 mph 1014.9mb 70f 71f
3:42 7 8 mph 1014.9mb 70f 71f
3:36 7 9 mph 1015mb 70f 71f
3:30 8 9 mph 1014.9mb 70f 70f
3:24 8 10 mph 1014.9mb 69f 70f
3:18 8 9 mph 1014.8mb 69f 71f
3:12 7 9 mph 1014.9mb 69f 71f
3:06 8 10 mph 1014.9mb 70f 71f
3:00 8 10 mph 1014.9mb 69f 70f
2:54 8 10 mph 1014.9mb 69f 70f
2:48 9 11 mph 1015mb 69f 70f
2:42 9 11 mph 1015mb 69f 70f
2:36 10 11 mph 1015mb 69f 70f
2:30 9 11 mph 1014.9mb 68f 70f
2:24 8 11 mph 1015mb 67f 70f
2:18 10 13 mph 1015.1mb 66f 70f
2:12 10 11 mph 1015mb 65f 70f
2:06 9 11 mph 1015.1mb 64f 70f
2:00 10 11 mph 1015.1mb 64f 70f
1:54 9 13 mph 1015.1mb 64f 70f
1:48 9 13 mph 1015.1mb 64f 70f
1:42 8 11 mph 1015.1mb 64f 70f
1:36 8 10 mph 1015.2mb 64f 69f
1:30 8 9 mph 1015.2mb 63f 70f
1:24 8 9 mph 1015.2mb 63f 70f
1:18 8 9 mph 1015.2mb 63f 69f
1:12 7 8 mph 1015.2mb 63f 70f
1:06 8 9 mph 1015.3mb 63f 69f
1:00 7 9 mph 1015.3mb 62f 69f
12:54 7 9 mph 1015.2mb 62f 70f
12:48 7 8 mph 1015.2mb 62f 70f
12:42 7 8 mph 1015.2mb 62f 70f
12:36 6 8 mph 1015.2mb 62f 70f
12:30 7 8 mph 1015.2mb 62f 71f
12:24 6 8 mph 1015.1mb 62f 71f
12:18 6 7 mph 1015.3mb 62f 71f
12:12 6 8 mph 1015.3mb 62f 71f
12:06 6 7 mph 1015.4mb 62f 71f
12:00 5 6 mph 1015.4mb 62f 71f
11:54 5 6 mph 1015.5mb 62f 71f
11:48 5 6 mph 1015.5mb 62f 71f
11:42 3 5 mph 1015.5mb 62f 72f
11:36 5 6 mph 1015.4mb 63f 71f
11:30 5 6 mph 1015.4mb 63f 71f
11:24 5 6 mph 1015.3mb 64f 71f
11:18 3 5 mph 1015.3mb 65f 71f
11:12 3 6 mph 1015.2mb 66f 71f
11:06 5 6 mph 1015.4mb 66f 70f
11:00 5 6 mph 1015.4mb 66f 69f
10:54 6
mph
1015.4mb 65f 69f
10:48 6
mph
1015.4mb 66f 69f
10:42 6
mph
1015.5mb 66f 69f
10:36 5 6 mph 1015.4mb 66f 69f
10:30 5 6 mph 1015.4mb 65f 69f
10:24 5 6 mph 1015.4mb 65f 69f
10:18 6
mph
1015.4mb 65f 69f
10:12 5 6 mph 1015.4mb 65f 69f
10:06 6
mph
1015.4mb 66f 69f
10:00 5
mph
1015.3mb 67f 69f
9:54 5
mph
1015.4mb 69f 69f
9:48 5 6 mph 1015.3mb 69f 69f
9:42 6
mph
1015.3mb 69f 69f
9:36 5 6 mph 1015.4mb 70f 69f
9:30 5 6 mph 1015.5mb 70f 69f
9:24 5
mph
1015.5mb 70f 69f
9:18 5
mph
1015.5mb 70f 69f
9:12 5 6 mph 1015.6mb 70f 69f
9:06 5
mph
1015.6mb 69f 69f
9:00 2 3 mph 1015.5mb 69f 69f
8:54 2 3 mph 1015.5mb 69f 69f
8:48  -  2 mph 1015.5mb 69f 69f
8:42 1
mph
1015.5mb 69f 69f
8:36  -  1 mph 1015.6mb 67f 69f
8:30  -  1 mph 1015.6mb 68f 69f
8:24 1 2 mph 1015.6mb 68f 69f
8:18 1
mph
1015.6mb 69f 69f
8:12 1 3 mph 1015.5mb 70f 69f
8:06 2 3 mph 1015.4mb 70f 69f
8:00  -  1 mph 1015.4mb 70f 69f
7:54 1 2 mph 1015.3mb 70f 68f
7:48 2 3 mph 1015.2mb 70f 68f
7:42  -  3 mph 1015.2mb 70f 68f
7:36 2 3 mph 1015.1mb 70f 68f
7:30 1 2 mph 1015.1mb 70f 68f
7:24 2 3 mph 1015mb 70f 68f
7:18 3 5 mph 1015mb 70f 68f
7:12 5
mph
1014.8mb 70f 68f
7:06 3
mph
1014.8mb 70f 68f
7:00 5 6 mph 1014.9mb 70f 67f
6:54 3 5 mph 1014.7mb 70f 67f
6:48 5 6 mph 1014.7mb 70f 67f
6:42 5 6 mph 1014.7mb 70f 67f
6:36 3 5 mph 1014.7mb 70f 67f
6:30 5 6 mph 1014.7mb 70f 67f
6:24 5 6 mph 1014.6mb 70f 67f
6:18 5 6 mph 1014.5mb 70f 67f
6:12 5 6 mph 1014.5mb 70f 67f
6:06 5 7 mph 1014.6mb 70f 67f
6:00 5 7 mph 1014.6mb 70f 67f
5:54 5 6 mph 1014.6mb 70f 68f
5:48 5 7 mph 1014.4mb 70f 68f
5:42 5 6 mph 1014.4mb 69f 68f
5:36 5 6 mph 1014.2mb 68f 68f
5:30 6 7 mph 1014.2mb 68f 68f
5:24 6 7 mph 1014.1mb 67f 68f
5:18 7 8 mph 1014.1mb 67f 68f
5:12 7 8 mph 1014.1mb 68f 67f
5:06 6 7 mph 1014mb 68f 67f
5:00 6 7 mph 1014mb 69f 67f
4:54 7 8 mph 1013.9mb 70f 67f
4:48 7 8 mph 1013.8mb 71f 68f
4:42 7 8 mph 1013.7mb 71f 68f
4:36 6 7 mph 1013.7mb 71f 68f
4:30 6 7 mph 1013.8mb 71f 68f
4:24 6 7 mph 1013.8mb 71f 68f
4:18 6
mph
1013.7mb 71f 68f
4:12 6 7 mph 1013.7mb 71f 68f
4:06 6 7 mph 1013.7mb 71f 68f
4:00 6 7 mph 1013.8mb 71f 68f
3:54 6 7 mph 1013.8mb 71f 68f
3:48 6 7 mph 1013.8mb 71f 68f
3:42 6 8 mph 1013.9mb 71f 68f
3:36 6 7 mph 1013.9mb 71f 68f
3:30 5 7 mph 1013.9mb 71f 68f
3:24 7 8 mph 1013.8mb 71f 68f
3:18 6 7 mph 1013.7mb 71f 68f
3:12 6 8 mph 1013.7mb 71f 68f
3:06 7 8 mph 1013.7mb 71f 68f
3:00 7 9 mph 1013.7mb 71f 68f
2:54 7 8 mph 1013.6mb 71f 68f
2:48 7 9 mph 1013.7mb 71f 68f
2:42 6 10 mph 1013.6mb 71f 68f
2:36 9 11 mph 1013.6mb 71f 68f
2:30 9 10 mph 1013.6mb 71f 68f
2:24 9 10 mph 1013.6mb 71f 68f
2:18 9 10 mph 1013.7mb 71f 68f
2:12 8 10 mph 1013.8mb 71f 68f
2:06 7 9 mph 1013.9mb 71f 68f
2:00 8 9 mph 1014mb 71f 68f
1:54 8 10 mph 1014mb 71f 68f
1:48 9 10 mph 1014mb 71f 68f
1:42 9 10 mph 1014.1mb 71f 68f
1:36 9
mph
1014.2mb 71f 68f
1:30 9 10 mph 1014.3mb 71f 68f
1:24 9 10 mph 1014.3mb 71f 68f
1:18 9 10 mph 1014.3mb 71f 69f
1:12 9 10 mph 1014.4mb 71f 69f
1:06 9
mph
1014.5mb 71f 69f
1:00 9
mph
1014.5mb 71f 68f
12:54 9 10 mph 1014.5mb 71f 68f
12:48 9 10 mph 1014.5mb 71f 69f
12:42 9
mph
1014.6mb 71f 69f
12:36 9 10 mph 1014.6mb 71f 69f
12:30 7 9 mph 1014.6mb 71f 69f
12:24 9 10 mph 1014.6mb 71f 69f
12:18 8 9 mph 1014.6mb 71f 69f
12:12 8 10 mph 1014.6mb 71f 69f
12:06 8 10 mph 1014.6mb 71f 69f
12:00 8 10 mph 1014.6mb 71f 69f
ven. 07/18 11:54 8 11 mph 1014.6mb 71f 69f
11:48 9 11 mph 1014.6mb 71f 69f
11:42 9 10 mph 1014.8mb 71f 69f
11:36 8 9 mph 1014.8mb 71f 69f
11:30 9 10 mph 1014.8mb 71f 69f
11:24 9 10 mph 1014.9mb 71f 69f
11:18 9 10 mph 1014.8mb 71f 69f
11:12 8 9 mph 1014.8mb 71f 69f
11:06 9 11 mph 1014.8mb 71f 69f
11:00 7 9 mph 1014.8mb 71f 69f
10:54 7 9 mph 1014.8mb 71f 69f
10:48 8 9 mph 1014.8mb 71f 69f
10:42 8 10 mph 1014.9mb 70f 69f
10:36 9 10 mph 1014.8mb 70f 69f
10:30 9 10 mph 1014.9mb 70f 69f
10:24 9 10 mph 1014.9mb 70f 69f
10:18 9 10 mph 1014.9mb 70f 69f
10:12 9 10 mph 1014.8mb 70f 69f
10:06 8 10 mph 1014.9mb 70f 69f
10:00 9 10 mph 1014.8mb 70f 69f
9:54 9 10 mph 1014.8mb 71f 69f
9:48 9 11 mph 1014.8mb 71f 69f
9:42 8 9 mph 1014.7mb 71f 69f
9:36 9 10 mph 1014.7mb 70f 69f
9:30 9
mph
1014.6mb 70f 69f
9:24 9 10 mph 1014.5mb 70f 69f
9:18 9 10 mph 1014.5mb 69f 69f
9:12 10
mph
1014.5mb 69f 69f
9:06 9 10 mph 1014.5mb 68f 69f
9:00 10 11 mph 1014.4mb 68f 69f
8:54 9 10 mph 1014.5mb 67f 69f
8:48 9 13 mph 1014.5mb 67f 69f
8:42 10 11 mph 1014.5mb 67f 69f
8:36 10 13 mph 1014.5mb 67f 69f
8:30 10 13 mph 1014.5mb 67f 69f
8:24 10 11 mph 1014.5mb 67f 69f
8:18 9 10 mph 1014.5mb 67f 69f
8:12 9 11 mph 1014.5mb 67f 69f
8:06 10 11 mph 1014.5mb 67f 69f
8:00 10 11 mph 1014.5mb 67f 69f
7:54 9 11 mph 1014.5mb 67f 69f
7:48 10 11 mph 1014.5mb 67f 69f
7:42 9 11 mph 1014.5mb 67f 69f
7:36 10 13 mph 1014.5mb 67f 69f
7:30 10 13 mph 1014.4mb 66f 69f
7:24 10 13 mph 1014.4mb 67f 69f
7:18 11 13 mph 1014.4mb 67f 69f
7:12 11
mph
1014.4mb 68f 69f
7:06 9 11 mph 1014.4mb 68f 69f
7:00 10 11 mph 1014.4mb 67f 69f
6:54 10 13 mph 1014.4mb 67f 69f
6:48 11 13 mph 1014.4mb 67f 69f
6:42 11 14 mph 1014.4mb 67f 69f
6:36 11 13 mph 1014.5mb 67f 69f
6:30 11 13 mph 1014.4mb 66f 70f
6:24 10 13 mph 1014.5mb 67f 70f
6:18 11 13 mph 1014.5mb 67f 69f
6:12 11 13 mph 1014.5mb 67f 69f
6:06 10 11 mph 1014.5mb 67f 70f
6:00 9 11 mph 1014.5mb 67f 70f
5:54 10 13 mph 1014.6mb 67f 70f
5:48 10 13 mph 1014.6mb 67f 70f
5:42 9 13 mph 1014.6mb 68f 70f
5:36 10 13 mph 1014.6mb 67f 70f
5:30 11 14 mph 1014.7mb 67f 70f
5:24 11 13 mph 1014.6mb 68f 70f
5:18 10 13 mph 1014.8mb 68f 70f
5:12 10 11 mph 1014.8mb 68f 70f
5:06 10 13 mph 1014.8mb 68f 70f
5:00 10 11 mph 1014.9mb 68f 70f
4:54 9 10 mph 1014.9mb 68f 70f
4:48 9 11 mph 1015mb 68f 70f
4:42 9 13 mph 1015mb 68f 69f
4:36 9 10 mph 1015mb 68f 70f
4:30 8 10 mph 1015mb 69f 70f
4:24 9 10 mph 1015.1mb 69f 70f
4:18 9 10 mph 1015.1mb 70f 70f
4:12 8 10 mph 1015.1mb 70f 70f
4:06 9 10 mph 1015.1mb 71f 70f
4:00 9 10 mph 1015.2mb 71f 70f
3:54 9 10 mph 1015.3mb 71f 71f
3:48 9 10 mph 1015.4mb 71f 70f
3:42 8 10 mph 1015.5mb 71f 71f
3:36 9 10 mph 1015.6mb 71f 71f
3:30 9 10 mph 1015.6mb 71f 71f
3:24 9 10 mph 1015.6mb 71f 71f
3:18 8 10 mph 1015.6mb 71f 71f
3:12 8 10 mph 1015.7mb 71f 72f
3:06 8 10 mph 1015.7mb 71f 72f
3:00 8 9 mph 1015.8mb 71f 72f
2:54 8 9 mph 1015.8mb 71f 72f
2:48 8 9 mph 1015.8mb 71f 72f
2:42 7 9 mph 1015.8mb 71f 71f
2:36 7 9 mph 1015.8mb 71f 71f
2:30 6 9 mph 1015.9mb 71f 71f
2:24 7 8 mph 1016mb 71f 71f
2:18 6 8 mph 1016mb 71f 71f
2:12 6 7 mph 1016.1mb 71f 71f
2:06 7 9 mph 1016.1mb 71f 71f
2:00 8
mph
1016.2mb 71f 70f
1:54 8 9 mph 1016.3mb 71f 71f
1:48 6 8 mph 1016.3mb 71f 71f
1:42 6 8 mph 1016.4mb 71f 71f
1:36 7 9 mph 1016.4mb 71f 71f
1:30 7 9 mph 1016.5mb 71f 71f
1:24 8 9 mph 1016.6mb 71f 71f
1:18 8 9 mph 1016.6mb 71f 71f
1:12 6 8 mph 1016.6mb 71f 72f
1:06 6 9 mph 1016.6mb 71f 71f
1:00 8 9 mph 1016.6mb 71f 71f
12:54 7 9 mph 1016.7mb 71f 72f
12:48 8 9 mph 1016.8mb 71f 71f
12:42 6 9 mph 1016.8mb 71f 72f
12:36 8 9 mph 1016.8mb 71f 71f
12:30 7 9 mph 1016.9mb 71f 71f
12:24 6 8 mph 1016.9mb 71f 71f
12:18 6 7 mph 1017mb 71f 72f
12:12 6 7 mph 1017mb 71f 72f
12:06 6 7 mph 1017mb 71f 72f
12:00 6 7 mph 1017mb 70f 71f
11:54 6 7 mph 1017mb 70f 71f
11:48 7 8 mph 1017mb 69f 71f
11:42 6 7 mph 1017mb 67f 72f
11:36 5 7 mph 1017.1mb 64f 72f
11:30 6 7 mph 1017.1mb 64f 72f
11:24 6 7 mph 1017.1mb 64f 72f
11:18 6 7 mph 1017.1mb 64f 72f
11:12 6
mph
1017mb 64f 71f
11:06 5 6 mph 1017.1mb 65f 71f
11:00 5 6 mph 1017.1mb 64f 71f
10:54 3 5 mph 1017.1mb 64f 71f
10:48 3 5 mph 1017.1mb 64f 71f
10:42 3 5 mph 1017.2mb 64f 71f
10:36 3 5 mph 1017.2mb 64f 71f
10:30 5
mph
1017.2mb 64f 71f
10:24 5
mph
1017.2mb 64f 71f
10:18 3 5 mph 1017.2mb 64f 71f
10:12 3
mph
1017.2mb 65f 71f
10:06 3 5 mph 1017.2mb 65f 70f
10:00 5
mph
1017.1mb 65f 70f
9:54 5
mph
1017.1mb 65f 70f
9:48 3 5 mph 1017.2mb 65f 70f
9:42 3 5 mph 1017.2mb 65f 70f
9:36 5 6 mph 1017.1mb 65f 70f
9:30 5 6 mph 1017.1mb 66f 70f
9:24 5 6 mph 1017mb 67f 70f
9:18 3 5 mph 1017mb 67f 70f
9:12 3 5 mph 1017mb 68f 70f
9:06 3 6 mph 1017.1mb 69f 70f
9:00 5 6 mph 1017mb 69f 70f
8:54 3 5 mph 1017mb 69f 69f
8:48 5 6 mph 1016.9mb 69f 70f
8:42 3
mph
1016.9mb 68f 70f
8:36 2 3 mph 1016.9mb 68f 69f
8:30 2 3 mph 1017mb 68f 70f
8:24 2 3 mph 1017mb 67f 69f
8:18 2 5 mph 1017mb 67f 69f
8:12 5 6 mph 1016.9mb 67f 69f
8:06 6
mph
1016.7mb 65f 69f
8:00 3 5 mph 1016.7mb 65f 69f
7:54 2 3 mph 1016.7mb 65f 69f
7:48  -  2 mph 1016.7mb 65f 69f
7:42 2
mph
1016.6mb 66f 69f
7:36 2 5 mph 1016.5mb 65f 69f